Regional Weather Roundup
Issued by NWS

Home | Current Version | Previous Version | Graphics & Text | Print | Product List | Glossary On
Versions: 1 2 3 4 5 6 7 8 9 10 11 12 13 14 15 16 17 18 19 20 21 22 23 24 25 26 27 28 29 30 31 32 33 34 35 36 37 38 39 40 41 42 43 44 45 46 47 48 49 50
000
ASUS43 KIND 270809
RWRIN

WEATHER ROUNDUP FOR INDIANA
NATIONAL WEATHER SERVICE INDIANAPOLIS IN
400 AM EDT TUE SEP 27 2016

NOTE: "FAIR" INDICATES FEW OR NO CLOUDS BELOW 12,000 FEET WITH NO
SIGNIFICANT WEATHER AND/OR OBSTRUCTIONS TO VISIBILITY.

* - STATION DOES NOT REPORT WEATHER SUCH AS PRECIPITATION OR FOG.

+ - STATION NOT QUALITY CONTROLLED BY THE NATIONAL WEATHER SERVICE.
    USE DATA WITH CAUTION...ESPECIALLY DEWPOINT AND RELATIVE
    HUMIDITY OBSERVATIONS.

INZ001>003-010>013-019-020-270900-
NORTHWEST INDIANA

CITY           SKY/WX    TMP DP  RH WIND       PRES   REMARKS
GARY /AIRPORT/ CLEAR     56  41  57 SW5       29.90F
KNOX *+        CLEAR     48  23  37 SW6       29.91F
LA PORTE +     CLEAR     51  41  68 SW9       29.90F
MICHIGAN CITY+ CLEAR     50  39  66 MISG      29.88F
MONTICELLO +   CLEAR     50  37  62 SW7       29.94F
RENSSELAER +   CLEAR     52  41  66 SW7       29.93F
VALPARAISO     CLEAR     49  41  74 SW8       29.91F

$$

LMZ046-743>745-270900-
SOUTHERN LAKE MICHIGAN

STATION/POSITION TIME  TEMP    WIND        PRES    WAVE
                       AIR SEA DIR/SP/G            HT
                 (UTC) (F)     (DEG/KT/KT) (MB)    (FT)
BURNS HARBOR     0700   59     210/ 12/ 16 1012.9F
MICHIGAN CITY    0700   57     180/ 13/ 15   N/A
5NW MICH CITY    0800   61 67  240/ 17/ 21   N/A     4

$$

INZ004-005-014>016-021>024-270900-
NORTH CENTRAL INDIANA

CITY           SKY/WX    TMP DP  RH WIND       PRES   REMARKS
GOSHEN         CLEAR     49  39  68 SW10      29.90F
LOGANSPORT +   CLEAR     50  41  71 SW7       29.95F
PERU/GRISSOM   CLEAR     49  41  73 SW8       29.93F
ROCHESTER +    CLEAR     54  43  66 SW6       29.93F
SOUTH BEND     CLEAR     50  39  66 SW12      29.89F
WARSAW +       CLEAR     52  32  46 SW6       29.91F

$$

INZ006>009-017-018-025>027-270900-
NORTHEAST INDIANA

CITY           SKY/WX    TMP DP  RH WIND       PRES   REMARKS
ANGOLA *+        N/A     48  39  71 SW8       29.89F
AUBURN +       CLEAR     52  37  58 SW6       29.92F
FORT WAYNE     CLEAR     48  40  73 SW9       29.93F
HUNTINGTON +   CLEAR     51  40  66 SW5       29.93F
KENDALLVILLE + CLEAR     50  39  65 SW8       29.91F

$$

INZ028-029-035-036-043>045-051>053-270900-
WEST CENTRAL INDIANA

CITY           SKY/WX    TMP DP  RH WIND       PRES   REMARKS
CRAWFORDSVL +  CLEAR     48  42  81 SW7       29.99F
GREENCASTLE +  CLEAR     46  46 100 CALM      30.01F
LAFAYETTE      CLEAR     48  43  82 W5        29.96F
TERRE HAUTE    CLEAR     51  43  74 SW5       30.02F

$$

INZ030>032-037>040-046>048-054>057-064-065-270900-
CENTRAL INDIANA

CITY           SKY/WX    TMP DP  RH WIND       PRES   REMARKS
FISHERS *+     PTCLDY    48  45  87 SW5       29.99
FRANKFORT +    CLEAR     55  41  60 W6        29.98F
GREENWOOD *+   CLEAR     52  45  76 W5        30.01F
INDIANAPOLIS   CLEAR     49  44  83 SW7       29.99F
-EAGLE CREEK   CLEAR     53  41  63 SW3       29.99F
MARION +       CLEAR     51  39  65 W5        29.96F HAZE
MT COMFORT *+  CLEAR     50  43  76 SW6       29.99F
SHELBYVILLE    CLEAR     50  44  80 S6        30.00F
ZIONSVILLE +   PTCLDY    49  40  70 SW7       29.99F

$$

INZ033-034-041-042-049-050-058-059-270900-
EAST CENTRAL INDIANA

CITY           SKY/WX    TMP DP  RH WIND       PRES   REMARKS
MUNCIE         CLEAR     54  40  59 SW7       29.97F

$$

INZ060-061-067>069-081>083-085>088-270900-
SOUTHWEST INDIANA

CITY           SKY/WX    TMP DP  RH WIND       PRES   REMARKS
EVANSVILLE     CLEAR     50  46  86 W5        30.06F
HUNTINGBURG *+   N/A     50  46  87 CALM      30.06F
WASHINGTON +   CLEAR     53  46  79 MISG      30.04S

$$

INZ062-063-066-070>080-084-089>092-270900-
SOUTH CENTRAL AND SOUTHEAST INDIANA

CITY           SKY/WX    TMP DP  RH WIND       PRES   REMARKS
BLOOMINGTON    CLEAR     50  43  77 CALM      30.03F
MADISON *+     CLEAR     48  46  93 CALM      30.05F
NORTH VERNON + CLEAR    N/A N/A N/A CALM      30.04
SEYMOUR +      CLEAR     48  46  93 CALM      30.03F

$$




USA.gov is the U.S. government's official web portal to all federal, state and local government web resources and services.